Location: Lane
(33.5226°N, 79.8788°W)
Time: 10:51:56
(UTC+00:00)

Altair - Pass Details

Date: 11 October 2022
Orbit: 1501 x 1682 km, 47.2° (Epoch: 30 November)

Event Time Altitude Azimuth Distance (km) Brightness Sun altitude
Rises 13:19:21 0° 305° (NW) 4,850 9.5 22.7°
Reaches altitude 10° 13:22:32 10° 309° (NW) 3,884 9.1 23.2°
Maximum altitude 13:32:27 62° 29° (NNE) 1,848 8.3 25.1°
Drops below altitude 10° 13:42:29 10° 109° (ESE) 3,939 11.3 26.9°
Sets 13:45:43 0° 113° (ESE) 4,922 11.4 27.5°
